TimePST,TemperatureF,Dew PointF,Humidity,Sea Level PressureIn,VisibilityMPH,Wind Direction,Wind SpeedMPH,Gust SpeedMPH,PrecipitationIn,Events,Conditions,WindDirDegrees,DateUTC
12:53 AM,48.9,41.0,74,30.15,5.0,Calm,Calm,-,N/A,,Haze,0,2014-01-13 08:53:00
1:53 AM,50.0,35.1,57,30.16,10.0,Calm,Calm,-,N/A,,Clear,0,2014-01-13 09:53:00
2:53 AM,55.0,25.0,31,30.18,10.0,Calm,Calm,-,N/A,,Clear,0,2014-01-13 10:53:00
3:53 AM,53.1,28.0,38,30.18,10.0,Calm,Calm,-,N/A,,Clear,0,2014-01-13 11:53:00
4:53 AM,48.9,33.1,54,30.19,10.0,WNW,4.6,-,N/A,,Clear,300,2014-01-13 12:53:00
5:53 AM,48.0,33.1,56,30.21,9.0,NW,3.5,-,N/A,,Clear,310,2014-01-13 13:53:00
6:53 AM,46.9,32.0,56,30.24,10.0,Calm,Calm,-,N/A,,Clear,0,2014-01-13 14:53:00
7:53 AM,53.1,32.0,45,30.26,10.0,Calm,Calm,-,N/A,,Clear,0,2014-01-13 15:53:00
8:53 AM,63.0,36.0,37,30.29,10.0,Calm,Calm,-,N/A,,Clear,0,2014-01-13 16:53:00
9:53 AM,75.9,17.1,11,30.30,10.0,Calm,Calm,-,N/A,,Clear,0,2014-01-13 17:53:00
10:53 AM,78.1,14.0,9,30.28,10.0,Variable,5.8,16.1,N/A,,Clear,0,2014-01-13 18:53:00
11:53 AM,80.1,14.0,8,30.26,10.0,East,15.0,-,N/A,,Clear,90,2014-01-13 19:53:00
12:53 PM,81.0,12.0,7,30.24,10.0,ESE,15.0,18.4,N/A,,Clear,110,2014-01-13 20:53:00
1:53 PM,82.0,12.9,7,30.23,10.0,ESE,12.7,21.9,N/A,,Clear,110,2014-01-13 21:53:00
2:53 PM,82.0,14.0,8,30.22,10.0,ESE,13.8,18.4,N/A,,Clear,110,2014-01-13 22:53:00
3:53 PM,81.0,15.1,8,30.22,10.0,ESE,8.1,-,N/A,,Clear,110,2014-01-13 23:53:00
4:53 PM,77.0,24.1,14,30.22,10.0,Variable,3.5,-,N/A,,Clear,0,2014-01-14 00:53:00
5:53 PM,68.0,34.0,28,30.22,10.0,Calm,Calm,-,N/A,,Clear,0,2014-01-14 01:53:00
6:53 PM,64.0,33.1,31,30.23,10.0,Calm,Calm,-,N/A,,Clear,0,2014-01-14 02:53:00
7:53 PM,61.0,32.0,34,30.24,10.0,Calm,Calm,-,N/A,,Clear,0,2014-01-14 03:53:00
8:53 PM,57.0,33.1,40,30.24,10.0,Calm,Calm,-,N/A,,Clear,0,2014-01-14 04:53:00
9:53 PM,55.0,32.0,42,30.24,10.0,Calm,Calm,-,N/A,,Clear,0,2014-01-14 05:53:00
10:53 PM,53.1,32.0,45,30.25,10.0,Calm,Calm,-,N/A,,Clear,0,2014-01-14 06:53:00
11:53 PM,52.0,32.0,47,30.24,10.0,Calm,Calm,-,N/A,,Clear,0,2014-01-14 07:53:00